CUBEBEL-1 (BSUSAT-1) (43666 NORAD) Tracking and Keplerian Element Data

This shows tracking and keplerian element data for the satellite.

Feedback or suggestion? Click here.




ElementValue
Catalog43666
NameCUBEBEL-1 (BSUSAT-1)
Epoch Orbit255
Epoch Day318.84957352
Epoch Year2018
RAAN339.6402
Inclination97.5384
Eccentricity0.0014056
Argument of Perigee214.043
Mean Anonmoly270.4818
Mean Motion15.17123992
Decay Rate1.253E-05
L11 43666U 18083E 18318.84957352 .00001253 00000-0 66546-4 0 9991
L22 43666 97.5384 339.6402 0014056 214.0430 270.4818 15.17123992 2552

Live tracking and technical data element details for CUBEBEL-1 (BSUSAT-1) (NORAD 43666). CUBEBEL-1 (BSUSAT-1) can be tracked NOW for your location showing map with azimuth and elevation plus other details from your city location.

Track the satellite on the map from your city or location and see movement details for azimuth, elevation, latitude, longitude, range, height, and movement on the map or in text.







IsCatalogInMostPopularTable: catalog: 43666, numindb: 6
Update: records affected: 1



GetName: 43666 CUBEBEL-1 (BSUSAT-1)

Hit Count: updated at: Fri, 16 Nov 2018 04:15:57 GMT